STARLINK-11442, 62885

Orbit data source: Space-Track

STARLINK-11442, 62885 is a payload satellite owned by SpaceX/Seattle (US) in LEO that was launched on Tue, 04 Feb 2025 UTC via an FALCON 9 launch vehicle from the Air Force Eastern Test Range (AFETR). Payload-class satellites include a variety of spacecraft equipped with specific instruments for various scientific and technological missions. These include communications satellites like Starlink; space stations such as the ISS; scientific satellites like the Hubble; Earth observation satellites from companies like Planet Labs, Umbra, and HawkEye 360; GPS; miniature CubeSats for education and research; and military/defense satellites.

Loading next visibility...
Identifier
62885, 2025-024G
Orbit
LEO
Country
Flag of USUS
Related business
Manufacturer
SpaceX/Seattle
Mission
Operational Commercial Communications
Bus & Motor
STARLINK V2MD, Unknown motor
Mass
960 kg wet, ~910 kg dry
Launch date (UTC)
2025-02-04 (9 months ago)
Launch vehicle
FALCON 9
Launch site
Air Force Eastern Test Range (AFETR)
Object type
Payload
Rocket body
Debris
Shape & HBR
Box + 2 Pan, 18.1 m
Radar Cross Section
36.964 m², Large (>1 m²)

Expand to show TLE details & history
Last TLE update: 19 hours ago

TLE from 19 hours ago
0 STARLINK-11442
1 62885U 25024G   25302.85345306  .00312832  00000-0  23322-2 0  9991
2 62885  42.9981 249.7190 0003368 293.1566  66.8947 15.71028116 42893
Epoch: 2025-10-29T20:28Z
TLE epoch observation values (Epoch: 2025-10-29T20:28:58.344Z)
Latitude
0.00001°
Longitude
-95.94472°
Altitude
354.839 km
Speed
7.699 km/s
True Right ascension
16h 38m 52s
True Declination
0° 00' 00"
Sunlit
Object was in daylight at epoch
Visualization orbit readout
Latitude
Unknown
Longitude
Unknown
Altitude
Unknown
Speed
Unknown
Apparent Right ascension
Unknown
Apparent Declination
Unknown
Sunlit
N/A
Visualization observer readout
Local Sidereal Time
11:29:37
Azimuth
Unknown
Elevation
Unknown
Doppler factor
Unknown
Orbital elements
Apogee altitude
360.208 km
Perigee altitude
355.671 km
Semi-major axis
6,736.077 km
Eccentricity
0.00034
Inclination
42.9981°
RAAN
249.719°
Arg. of periapsis
293.1566°
True anomaly
66.9302°
Mean anomaly
66.8947°
Eccentric anomaly
66.91245°
Mean motion
3.92584 °/min
Orbital period
91.7 mins
BSTAR
0.0023322
Loading maneuver chart data...
Computing Atmospheric mass density...
Loading historical data...
Loading historical data...
Loading historical data...
Loading historical data...
Loading historical data...
Loading historical data...
Loading historical data...

Documentation

Showing up to 5 results
|